User: anonymous   Login
Location: Unspecified
(0.0000°N, 0.0000°E)
Time: 23:35:12
(UTC+00:00)
Language:

Safir 2 - Orbit

View from above orbital plane
View from above orbital plane
View from above satellite
View from above satellite

Ground track
Ground track

The orbit data is extracted from the following two-line orbital elements,

1 25399U 98043F   18142.40836873 +.00000004 +00000-0 +20449-4 0  9994
2 25399 098.6155 084.2774 0002377 039.9609 320.1745 14.24613952031532
Epoch (UTC): 22 May 2018 09:48:03
Eccentricity: 0.0002377
inclination: 98.6155°
perigee height: 808 km
apogee height: 811 km
right ascension of ascending node: 84.2774°
argument of perigee: 39.9609°
revolutions per day: 14.24613952
mean anomaly at epoch: 320.1745°
orbit number at epoch: 3153

The dashed part of the orbit path shows where the satellite is in the earth's shadow,  

DLR